User: anonymous   Login
Location: Berkeley
(37.8716°N, 122.2727°W)
Time: 20:23:42
(UTC-08:00)
Language:

First-Move - Orbit

View from above orbital plane
View from above orbital plane
View from above satellite
View from above satellite

Ground track
Ground track

The orbit data is extracted from the following two-line orbital elements,

1 39439U 13066Z   19325.26992248  .00000439  00000-0  59968-4 0  9993
2 39439  97.5698 330.1934 0064039 243.5386 115.9249 14.81956574323986
Epoch (UTC): 21 November 2019 06:28:41
Eccentricity: 0.0064039
inclination: 97.5698°
perigee height: 578 km
apogee height: 668 km
right ascension of ascending node: 330.1934°
argument of perigee: 243.5386°
revolutions per day: 14.81956574
mean anomaly at epoch: 115.9249°
orbit number at epoch: 32398

The dashed part of the orbit path shows where the satellite is in the earth's shadow,  

DLR